Stündliche Wetter Kyzlar-Birgan

Heute, 16 Mai, Sonntag

Zeit Temperatur Niederschläge Wind Luftdruck Luftfeuchtigkeit
00:00 +15°C° 0 mm 0 m/S 715 mmHg 63%
01:00 +15°C° 0 mm 0 m/S 715 mmHg 64%
02:00 +14°C° 0 mm 0 m/S 715 mmHg 64%
03:00 +14°C° 0 mm 0 m/S 715 mmHg 65%
04:00 +14°C° 0 mm 0 m/S 715 mmHg 66%
05:00 +15°C° 0 mm 0 m/S 716 mmHg 61%
06:00 +17°C° 0 mm 0 m/S 716 mmHg 56%
07:00 +19°C° 0 mm 0 m/S 716 mmHg 51%
08:00 +22°C° 0 mm 0 m/S 717 mmHg 44%
09:00 +24°C° 0 mm 0 m/S 717 mmHg 38%
10:00 +28°C° 0 mm 1 m/S 717 mmHg 31%
11:00 +29°C° 0 mm 1 m/S 717 mmHg 29%
12:00 +29°C° 0 mm 2 m/S 716 mmHg 27%
13:00 +30°C° 0 mm 3 m/S 716 mmHg 24%
14:00 +29°C° 0 mm 3 m/S 716 mmHg 25%
15:00 +29°C° 0 mm 3 m/S 716 mmHg 26%
16:00 +28°C° 0 mm 4 m/S 716 mmHg 26%
17:00 +26°C° 0 mm 3 m/S 716 mmHg 35%
18:00 +24°C° 0 mm 2 m/S 715 mmHg 43%
19:00 +22°C° 0 mm 1 m/S 715 mmHg 52%
20:00 +21°C° 0 mm 1 m/S 715 mmHg 56%
21:00 +19°C° 0 mm 1 m/S 715 mmHg 60%
22:00 +16°C° 0 mm 1 m/S 715 mmHg 64%
23:00 +16°C° 0 mm 1 m/S 715 mmHg 64%

Morgen, 17 Mai, Montag

Zeit Temperatur Niederschläge Wind Luftdruck Luftfeuchtigkeit
00:00 +16°C° 0 mm 1 m/S 715 mmHg 64%
01:00 +15°C° 0 mm 1 m/S 715 mmHg 64%
02:00 +15°C° 0 mm 1 m/S 715 mmHg 62%
03:00 +15°C° 0 mm 1 m/S 715 mmHg 61%
04:00 +15°C° 0 mm 1 m/S 715 mmHg 60%
05:00 +18°C° 0 mm 1 m/S 715 mmHg 56%
06:00 +20°C° 0 mm 1 m/S 715 mmHg 51%
07:00 +20°C° 0 mm 0 m/S 716 mmHg 47%
08:00 +24°C° 0 mm 1 m/S 716 mmHg 42%
09:00 +26°C° 0 mm 2 m/S 716 mmHg 36%
10:00 +27°C° 0 mm 2 m/S 716 mmHg 30%
11:00 +28°C° 0 mm 3 m/S 716 mmHg 28%
12:00 +29°C° 0 mm 3 m/S 716 mmHg 25%
13:00 +29°C° 0 mm 3 m/S 716 mmHg 22%
14:00 +29°C° 0 mm 3 m/S 716 mmHg 23%
15:00 +29°C° 0 mm 3 m/S 715 mmHg 24%
16:00 +29°C° 0 mm 3 m/S 715 mmHg 24%
17:00 +27°C° 0 mm 3 m/S 715 mmHg 32%
18:00 +24°C° 0 mm 2 m/S 715 mmHg 40%
19:00 +21°C° 0 mm 2 m/S 714 mmHg 48%
20:00 +20°C° 0.1 mm 2 m/S 714 mmHg 52%
21:00 +19°C° 0.1 mm 1 m/S 714 mmHg 57%
22:00 +16°C° 0.1 mm 1 m/S 714 mmHg 61%
23:00 +16°C° 0 mm 1 m/S 714 mmHg 62%

übermorgen, 18 Mai, Dienstag

Zeit Temperatur Niederschläge Wind Luftdruck Luftfeuchtigkeit
00:00 +15°C° 0 mm 1 m/S 713 mmHg 63%
01:00 +15°C° 0 mm 1 m/S 713 mmHg 64%
02:00 +15°C° 0 mm 1 m/S 713 mmHg 65%
03:00 +14°C° 0 mm 1 m/S 713 mmHg 65%
04:00 +14°C° 0 mm 1 m/S 713 mmHg 66%
05:00 +15°C° 0 mm 0 m/S 713 mmHg 61%
06:00 +17°C° 0 mm 0 m/S 713 mmHg 56%
07:00 +19°C° 0 mm 0 m/S 714 mmHg 51%
08:00 +23°C° 0 mm 1 m/S 714 mmHg 45%
09:00 +25°C° 0 mm 1 m/S 714 mmHg 39%
10:00 +28°C° 0 mm 1 m/S 714 mmHg 32%
11:00 +28°C° 0 mm 2 m/S 713 mmHg 30%
12:00 +29°C° 0 mm 2 m/S 713 mmHg 27%
13:00 +30°C° 0 mm 2 m/S 713 mmHg 24%
14:00 +29°C° 0 mm 2 m/S 713 mmHg 26%
15:00 +29°C° 0 mm 3 m/S 713 mmHg 28%
16:00 +28°C° 0 mm 3 m/S 712 mmHg 30%
17:00 +26°C° 0 mm 2 m/S 712 mmHg 38%
18:00 +24°C° 0 mm 2 m/S 712 mmHg 45%
19:00 +23°C° 0 mm 1 m/S 712 mmHg 52%
20:00 +21°C° 0 mm 1 m/S 712 mmHg 58%
21:00 +20°C° 0 mm 1 m/S 712 mmHg 64%
22:00 +18°C° 0 mm 1 m/S 712 mmHg 70%
23:00 +16°C° 0 mm 1 m/S 712 mmHg 73%

19 Mai, Mittwoch

Zeit Temperatur Niederschläge Wind Luftdruck Luftfeuchtigkeit
00:00 +16°C° 0 mm 1 m/S 711 mmHg 75%
01:00 +15°C° 0 mm 1 m/S 711 mmHg 78%
02:00 +15°C° 0 mm 2 m/S 712 mmHg 76%
03:00 +13°C° 0 mm 3 m/S 712 mmHg 74%
04:00 +13°C° 0 mm 4 m/S 712 mmHg 73%
05:00 +13°C° 0 mm 4 m/S 712 mmHg 71%
06:00 +14°C° 0 mm 4 m/S 713 mmHg 70%
07:00 +14°C° 0 mm 5 m/S 713 mmHg 69%
08:00 +16°C° 0 mm 5 m/S 713 mmHg 63%
09:00 +17°C° 0 mm 5 m/S 713 mmHg 57%
10:00 +19°C° 0 mm 5 m/S 714 mmHg 51%
11:00 +20°C° 0 mm 5 m/S 714 mmHg 47%
12:00 +21°C° 0 mm 5 m/S 714 mmHg 43%
13:00 +21°C° 0 mm 5 m/S 714 mmHg 39%
14:00 +21°C° 0 mm 5 m/S 714 mmHg 38%
15:00 +21°C° 0 mm 5 m/S 714 mmHg 37%
16:00 +22°C° 0 mm 5 m/S 714 mmHg 36%
17:00 +20°C° 0 mm 4 m/S 714 mmHg 40%
18:00 +19°C° 0 mm 4 m/S 714 mmHg 44%
19:00 +18°C° 0 mm 3 m/S 714 mmHg 48%
20:00 +16°C° 0 mm 3 m/S 714 mmHg 53%
21:00 +13°C° 0 mm 3 m/S 714 mmHg 57%
22:00 +13°C° 0 mm 2 m/S 714 mmHg 62%
23:00 +12°C° 0 mm 2 m/S 714 mmHg 62%

20 Mai, Donnerstag

Zeit Temperatur Niederschläge Wind Luftdruck Luftfeuchtigkeit
00:00 +12°C° 0 mm 2 m/S 715 mmHg 63%
01:00 +10°C° 0 mm 2 m/S 715 mmHg 63%
02:00 +9°C° 0 mm 2 m/S 715 mmHg 64%
03:00 +9°C° 0 mm 2 m/S 715 mmHg 65%
04:00 +8°C° 0 mm 2 m/S 715 mmHg 67%
05:00 +10°C° 0 mm 2 m/S 715 mmHg 60%
06:00 +13°C° 0 mm 2 m/S 716 mmHg 53%
07:00 +14°C° 0 mm 3 m/S 716 mmHg 47%
08:00 +16°C° 0 mm 3 m/S 716 mmHg 42%
09:00 +18°C° 0 mm 3 m/S 716 mmHg 37%
10:00 +20°C° 0 mm 4 m/S 716 mmHg 33%
11:00 +21°C° 0 mm 4 m/S 716 mmHg 31%
12:00 +22°C° 0 mm 4 m/S 716 mmHg 29%
13:00 +23°C° 0 mm 4 m/S 716 mmHg 27%
14:00 +24°C° 0 mm 3 m/S 716 mmHg 27%
15:00 +24°C° 0 mm 3 m/S 716 mmHg 27%
16:00 +24°C° 0 mm 3 m/S 716 mmHg 27%
17:00 +21°C° 0 mm 3 m/S 716 mmHg 36%
18:00 +20°C° 0 mm 2 m/S 715 mmHg 45%
19:00 +19°C° 0 mm 1 m/S 715 mmHg 53%
20:00 +16°C° 0 mm 1 m/S 715 mmHg 58%
21:00 +15°C° 0 mm 1 m/S 715 mmHg 63%
22:00 +13°C° 0 mm 1 m/S 715 mmHg 67%
23:00 +12°C° 0 mm 1 m/S 715 mmHg 66%

21 Mai, Freitag

Zeit Temperatur Niederschläge Wind Luftdruck Luftfeuchtigkeit
00:00 +12°C° 0 mm 1 m/S 715 mmHg 66%
01:00 +12°C° 0 mm 1 m/S 715 mmHg 65%
02:00 +11°C° 0 mm 1 m/S 715 mmHg 65%
03:00 +11°C° 0 mm 1 m/S 715 mmHg 66%
04:00 +11°C° 0 mm 1 m/S 715 mmHg 66%
05:00 +13°C° 0 mm 1 m/S 716 mmHg 60%
06:00 +15°C° 0 mm 1 m/S 716 mmHg 55%
07:00 +18°C° 0 mm 1 m/S 717 mmHg 49%
08:00 +20°C° 0 mm 1 m/S 717 mmHg 43%
09:00 +21°C° 0 mm 2 m/S 717 mmHg 37%
10:00 +23°C° 0 mm 2 m/S 717 mmHg 32%
11:00 +24°C° 0 mm 3 m/S 717 mmHg 31%
12:00 +25°C° 0 mm 3 m/S 717 mmHg 31%
13:00 +26°C° 0 mm 3 m/S 717 mmHg 31%
14:00 +26°C° 0 mm 3 m/S 717 mmHg 32%
15:00 +25°C° 0 mm 3 m/S 717 mmHg 33%
16:00 +25°C° 0 mm 3 m/S 717 mmHg 34%
17:00 +24°C° 0 mm 2 m/S 717 mmHg 42%
18:00 +21°C° 0 mm 2 m/S 717 mmHg 50%
19:00 +20°C° 0 mm 1 m/S 717 mmHg 58%
20:00 +19°C° 0 mm 1 m/S 717 mmHg 60%
21:00 +16°C° 0 mm 1 m/S 717 mmHg 63%
22:00 +15°C° 0 mm 1 m/S 717 mmHg 65%
23:00 +15°C° 0 mm 1 m/S 717 mmHg 65%
Mehr zeigen

Wir brauchen deine Erlaubnis

Meteoprog und unser Service Anbieter werden persönliche Daten aufbewahren, so wie Cookies, Geräte Bezeichnung oder ähnliche Technologien von deinem Gerät und Prozess, so wie Persönliche Daten Inhalte und Werbungen, genauso wie social Media und den Verkehr zu analysieren.

  • Aufbewahrung und/oder Zugang zu deiner Geräte Informationen.

    Cookies, Geräte Bezeichnung oder andere Informationen, können aufbewahrt oder Zugang zu deinem Gerät erhalten, für den Grund, der oben angegeben wird.

  • Personalisierte Werbung und Inhalte, Messungen, Einblick in das Publikum und Produkt Entwicklung.

    Werbungen und Inhalte können personalisiert werden, basierend auf ein Profil. Mehr Daten können besser personalisierte Werbungen und Inhalte hinzufügen. Werbung und Inhalte können gezeigt und gemessen werden. Einblicke über das Publikum, welche die Werbung gesehen haben und den Inhalt, können abgeleitet werden. So wie Daten können genutzt werden, um es zu verbessern oder die Benutzer Erfahrung zu verbessern das System und die Software.

Wenn du “Ich stimme zu” klickst, erlaubst du uns, die Cookies zu benutzen die Geräte Bezeichnung, den Web oder ähnliche Technologien zu benutzen. Deine Settings, können in deinem Gerät bei deinem Browser geändert werden.

Für den bestimmten Zweck, berechtigten Interessen beruhen darauf, mehr als auf den Inhalt. Du kannst mehr darüber in unseren Privaten und Cookie Politik lesen.